Погода в Равалпинди

Пакистан     33°34′15″N   73°01′48″E
темп.,
°C
ветер,
м/с
пор.,
м/с
влажн.,
%
обл.,
%
осадки,
мм/ч
давл.,
гПа
погр.,
м
25 января, вт
вт2523:00+8ссз11835 0.0 101710
02:00+8сз11845 0.0 101710
05:00+7ссз11845 0.0 101610
08:00+8сз22815 0.0 101619
11:00+13зсз33575 0.0 1016572
14:00+15зсз43480 0.0 1014979
17:00+12зсз46590 0.0 1013198
20:00+10сз33570 0.0 101651
26 января, ср
ср2623:00+9сз22620 0.0 101611
02:00+8ссз22670 0.0 101610
05:00+7сз22703 0.0 101611
08:00+8сз22701 0.0 101729
11:00+13сз34500 0.0 1017541
14:00+16зсз44390 0.0 1015821
17:00+12зсз57510 0.0 1015230
20:00+10зсз35430 0.0 101795
27 января, чт
чт2723:00+9сз23480 0.0 101729
02:00+7сз22570 0.0 101711
05:00+6зсз22630 0.0 101613
08:00+7сз22600 0.0 101846
11:00+13сз34360 0.0 1019477
14:00+15зсз44310 0.0 1017762
17:00+12зсз46450 0.0 1016151
20:00+9зсз34460 0.0 101853
28 января, пт
пт2823:00+8сз22470 0.0 101817
02:00+7ссз22510 0.0 101815
05:00+6сз22500 0.0 101711
08:00+6сз23495 0.0 101858
11:00+13зсз33303 0.0 1018429
14:00+15зсз33265 0.0 1015753
17:00+12зсз34393 0.0 1015102
20:00+9зсз22405 0.0 101732
29 января, сб
сб2923:00+8с11430 0.0 101811
02:00+7св22510 0.0 101812
05:00+7св11574 0.0 101710
08:00+8зсз11565 0.0 101810
11:00+14зсз22370 0.0 1018400
14:00+17зсз33320 0.0 1015708
17:00+14зсз34420 0.0 1014112
20:00+10сз22450 0.0 101525